SCP
1 0 1 0 0 0 0 0 0 0 0 0 0 0 0 0 0 0 0 0 0 0 0 0 0 0 1 1 0 0 0 1 1 1 1 1 1 1 1 1 1 1 1
1 0 0 0 1 1 0 0 0 0 0 0 0 0 0 0 0 0 0 0 0 0 0 0 0 1 1 1 1 0 0 1 1 1 1 1 1 1 1 1 0 0 0
1 0 0 0 0 1 1 1 0 0 0 0 0 0 0 0 0 0 0 0 0 0 0 0 0 1 1 1 1 1 1 1 1 1 1 1 1 1 1 1 1 0 0
2 1 0 0 0 1 0 0 0 0 0 0 0 0 0 0 0 0 0 0 0 0 0 0 0 1 1 1 1 1 1 1 1 1 1 1 1 1 1 1 1 0 0
2 1 1 1 1 1 1 0 0 0 1 0 0 0 -0 0 0 0 0 0 0 0 0 0 0 0 0 1 1 1 1 1 0 1 1 1 1 1 1 1 1 0 0
1 2 1 1 1 2 2 1 1 1 0 0 0 0 0 0 0 0 0 -0 0 0 0 0 0 1 0 1 0 0 0 1 1 1 1 1 1 1 1 1 1 1 0
0 1 2 1 2 2 1 1 2 1 1 0 0 0 0 0 0 0 0 0 0 0 0 0 0 0 1 0 0 0 1 1 1 1 1 1 1 1 1 0 0 1 1
1 2 2 2 1 1 0 0 0 0 0 0 -0 1 0 0 -0 0 0 0 0 0 0 0 0 1 1 1 1 1 1 1 1 1 1 1 1 0 0 1 1 1 0
2 2 2 3 2 1 1 0 0 0 0 0 0 1 0 -0 0 0 0 0 1 0 0 0 0 1 1 1 1 1 0 1 1 1 1 0 0 0 0 1 0 0 0
0 -0 0 0 1 1 1 1 1 1 1 0 1 1 1 1 0 0 -0 0 0 1 0 0 0 1 1 1 1 1 1 0 1 1 0 0 1 1 0 0 0 0 1
0 1 1 1 1 1 1 2 2 2 2 1 1 1 1 0 0 0 -0 -0 -0 0 0 -0 -0 0 1 1 1 0 1 0 0 0 0 0 0 0 0 0 1 0 0
0 0 0 1 2 3 3 3 2 2 2 3 2 2 2 1 1 1 1 0 0 -0 0 0 0 0 -0 1 1 1 0 0 0 0 0 0 0 0 0 0 0 0 0
0 0 0 0 0 1 2 3 4 4 4 6 4 3 2 2 1 1 1 1 1 0 1 0 0 0 0 0 0 0 0 0 0 0 0 0 0 0 0 0 0 0 0
0 0 0 0 0 0 0 2 2 2 4 3 3 4 2 2 3 2 1 1 1 0 0 0 0 0 0 0 1 0 0 0 0 0 0 0 0 0 0 0 0 0 0
0 0 0 0 0 0 0 0 1 3 3 3 3 3 2 1 3 3 2 2 1 1 1 0 0 0 0 1 1 0 1 0 0 0 0 0 0 0 0 0 0 0 0
0 0 0 0 0 0 0 0 1 2 3 2 1 2 2 1 1 3 2 2 2 1 1 1 0 0 1 0 0 1 1 0 0 0 0 0 0 0 0 0 0 0 0
0 0 0 0 0 0 0 0 0 0 1 1 2 2 2 2 0 0 2 1 1 1 1 0 0 1 1 1 1 1 1 1 0 0 0 0 0 0 0 0 0 0 0
0 0 0 0 0 0 0 0 0 0 1 1 1 1 1 1 2 1 1 1 1 0 0 0 1 1 1 1 2 2 2 1 1 0 0 0 0 0 0 0 0 0 0
0 0 0 0 0 0 0 0 0 0 1 1 1 1 2 2 2 1 2 2 0 0 1 1 1 1 1 2 1 1 2 1 1 0 0 0 0 0 0 0 0 0 0
0 0 0 0 0 0 0 0 0 0 0 1 1 1 1 1 1 1 1 1 1 0 1 0 1 1 1 1 1 1 1 1 2 0 0 0 0 0 0 0 0 0 0
0 0 0 0 0 0 0 0 0 0 0 0 0 0 1 1 0 1 1 1 1 0 0 1 1 1 0 0 0 1 1 2 2 1 0 0 0 0 0 0 0 0 0
0 0 0 0 0 0 0 0 0 0 0 0 0 0 0 0 0 0 0 0 0 0 0 0 2 1 1 0 0 1 2 4 3 1 1 0 0 0 0 0 0 0 0
0 0 0 0 0 0 0 0 0 0 0 0 0 0 0 0 0 0 0 0 0 0 0 1 1 1 1 1 0 1 1 1 1 0 1 0 0 0 0 0 0 0 0
0 0 0 0 0 0 0 0 0 0 0 0 0 0 0 0 0 0 0 0 0 0 0 0 1 0 1 0 0 1 1 1 1 0 1 0 0 0 0 0 0 0 0
0 0 0 0 0 0 0 0 0 0 0 0 0 0 0 0 0 0 0 0 0 0 0 0 0 0 0 0 0 1 0 0 0 0 0 0 0 0 0 0 0 0 0
0 0 0 0 0 0 0 0 0 0 0 0 0 0 -0 -0 -0 0 0 0 0 0 0 0 0 0 0 0 0 0 0 0 0 0 0 0 0 0 0 0 0 0 0
Wind_Speed_500mb
50 46 47 47 47 46 46 46 47 47 48 48 48 49 47 47 46 44 43 37 39 39 37 35 31 29 26 23 23 26 27 29 27 25 23 24 24 25 24 21 21 24 28
57 57 54 52 51 50 50 50 50 51 52 54 54 55 54 53 52 52 50 48 44 46 45 41 38 36 33 29 24 26 27 32 31 28 27 25 23 24 23 21 20 23 31
59 59 58 59 57 55 56 53 53 53 55 58 60 60 61 60 59 60 57 55 51 50 53 50 46 43 40 34 30 30 30 32 32 31 29 27 27 26 27 24 23 37 34
61 63 63 63 66 60 59 59 60 58 57 59 61 64 66 69 68 68 65 61 60 57 58 58 55 48 45 41 37 35 35 34 33 31 33 32 33 34 35 37 42 48 39
64 63 59 59 57 56 62 64 64 61 60 61 65 68 71 69 68 72 75 70 68 62 61 58 56 54 50 46 42 39 39 38 33 38 36 36 37 41 45 46 43 49 54
67 55 55 61 46 42 41 49 47 47 47 49 59 69 72 76 75 72 73 77 74 69 63 61 58 58 56 54 46 43 39 40 40 41 43 44 46 50 55 52 56 57 58
65 65 51 41 44 43 39 43 48 40 32 41 76 65 54 61 64 64 69 75 74 71 69 67 66 62 57 55 53 47 41 41 41 44 45 45 46 51 52 56 58 62 64
64 65 53 45 43 46 45 43 42 62 84 79 83 72 41 35 38 36 41 49 61 64 66 72 71 66 62 57 55 50 45 45 44 44 43 40 43 51 48 46 55 64 58
53 49 44 39 40 46 53 53 50 71 64 79 83 75 42 41 45 49 50 47 53 48 52 64 70 67 64 64 59 57 51 48 47 43 42 40 42 48 44 45 56 54 52
25 28 32 37 45 48 55 56 49 57 61 56 59 79 76 78 52 60 56 66 55 54 49 38 39 35 57 66 64 60 53 51 45 43 44 43 46 42 41 46 46 40 32
28 30 34 37 44 49 51 49 51 55 57 62 72 81 81 76 76 79 84 80 57 47 56 72 76 64 59 49 63 59 53 56 45 44 45 48 47 38 38 38 32 27 19
48 46 47 48 51 53 53 52 53 53 56 58 59 70 71 60 59 62 79 96 85 72 60 65 72 67 65 54 41 46 57 56 46 44 46 51 48 39 33 32 24 21 10
61 61 61 62 63 62 59 62 63 65 66 67 66 67 67 69 65 69 76 77 84 84 92 59 57 62 57 57 57 58 61 59 49 48 44 53 50 38 29 29 21 21 14
76 78 80 79 75 71 70 67 68 69 69 71 69 67 62 63 63 63 67 73 60 74 95 114 112 76 60 52 49 51 54 48 45 49 50 47 48 37 28 27 23 23 14
88 90 92 93 91 88 79 74 67 72 74 74 70 70 66 65 65 68 67 60 67 66 72 96 106 100 91 83 62 51 40 44 39 49 51 48 43 39 29 24 20 24 21
91 96 97 97 96 93 90 84 79 69 74 73 70 70 69 57 61 65 74 79 81 83 80 61 59 88 76 73 75 64 55 63 49 51 52 47 40 37 29 25 22 23 23
80 83 84 85 86 85 86 87 85 77 74 75 78 76 74 73 60 57 69 82 83 83 84 94 89 84 83 67 73 63 46 57 52 52 49 44 39 36 30 28 25 26 23
67 66 63 64 68 71 69 72 72 67 73 79 78 78 73 68 71 65 69 75 83 88 89 77 79 86 83 83 73 64 52 56 53 51 48 43 38 37 34 33 32 30 27
59 62 65 68 68 69 71 70 71 69 68 74 76 78 78 76 75 61 72 74 77 87 87 82 78 77 77 78 67 44 41 46 51 52 47 43 38 35 30 31 31 28 29
68 61 56 58 63 63 61 61 64 70 72 70 76 86 76 73 73 68 68 72 76 80 85 82 83 70 69 77 68 61 58 52 54 54 52 44 41 37 35 31 27 27 28
62 66 70 67 64 63 65 65 67 68 70 71 67 78 87 82 72 73 68 69 78 79 88 77 74 65 76 77 68 68 66 60 59 60 52 47 44 41 39 31 27 24 25
64 69 74 74 70 64 60 67 64 68 75 81 74 59 67 70 79 79 86 79 82 81 86 81 77 74 83 80 68 80 89 78 64 59 55 48 44 42 39 34 29 25 24
72 79 80 77 80 73 68 63 61 67 68 80 90 81 57 62 66 72 83 88 90 94 87 87 88 78 79 75 60 76 75 72 58 44 57 40 43 40 41 36 32 29 25
71 69 71 69 72 70 63 63 63 61 67 75 87 96 77 65 62 68 71 82 80 92 100 101 91 99 95 73 69 74 77 68 52 49 56 35 45 45 41 35 31 30 31
65 62 61 64 70 65 62 51 54 58 60 64 76 91 75 67 71 76 81 79 80 88 104 107 103 101 94 86 77 71 67 71 67 56 59 35 44 42 32 24 24 33 36
61 59 60 61 60 57 52 45 47 56 55 49 55 94 92 85 83 81 79 73 80 89 90 95 102 109 84 63 63 63 73 79 62 37 57 40 46 42 25 29 28 38 41
Wind_Direction_500mb
234 235 237 240 244 246 243 241 243 245 246 247 248 252 252 255 258 259 257 259 257 253 259 266 262 259 268 271 272 267 267 271 278 281 286 283 283 285 283 286 294 294 297
239 239 241 241 244 246 251 252 252 254 256 257 257 258 260 260 262 262 262 263 258 256 254 260 261 261 265 270 276 278 276 267 274 278 283 286 286 281 279 281 293 296 296
246 247 251 253 251 254 253 255 258 259 264 269 270 269 269 269 267 268 267 267 264 259 259 259 262 262 263 264 273 272 276 275 275 279 280 280 277 277 277 281 283 298 287
255 254 256 258 258 258 261 262 265 265 267 272 278 281 281 280 277 274 274 272 269 267 266 262 258 260 260 263 273 271 269 276 276 280 278 276 277 280 282 277 285 295 288
256 259 265 271 272 270 272 269 268 273 276 281 285 287 287 284 281 282 277 274 273 271 269 273 259 257 260 261 271 271 271 269 272 274 276 275 279 285 288 292 294 298 297
256 248 276 285 266 263 265 261 265 273 289 294 295 289 288 287 286 281 279 278 277 273 272 269 268 261 260 262 265 268 273 268 270 275 273 278 284 292 294 289 296 297 295
251 262 272 272 269 260 255 247 239 245 281 302 313 307 299 291 290 284 281 279 279 277 272 269 267 266 266 264 263 265 271 274 272 273 275 278 283 295 298 296 297 298 294
258 271 274 271 272 267 270 247 258 278 286 287 290 294 299 307 298 308 310 303 288 279 275 270 268 268 266 265 267 266 267 273 275 275 277 276 286 297 296 296 300 299 296
264 267 272 265 268 269 270 280 284 276 286 268 262 264 274 276 292 290 291 299 301 301 279 270 268 267 264 265 266 267 268 275 275 275 278 279 288 294 297 301 305 305 304
288 286 286 283 279 277 275 278 273 256 267 260 254 257 260 269 264 286 287 283 282 290 297 286 279 290 268 262 262 266 269 274 275 274 278 282 289 291 296 306 308 308 305
280 289 292 289 288 288 285 279 274 267 267 267 256 257 263 268 266 271 283 278 276 279 278 279 283 289 286 282 260 267 270 268 269 270 278 282 289 281 296 307 311 315 305
274 272 270 269 272 272 270 270 267 262 261 261 259 260 258 257 258 263 256 261 271 270 274 282 277 277 279 279 284 284 273 261 263 265 277 282 284 281 294 300 308 307 327
270 270 267 264 264 263 266 265 260 258 256 256 256 255 258 256 258 258 261 260 264 265 257 261 267 268 272 277 283 283 281 258 258 265 272 281 279 284 292 289 286 293 287
270 269 269 271 268 264 262 260 261 258 257 255 253 251 251 253 255 255 253 260 256 256 254 252 254 257 268 274 286 289 270 249 251 267 272 270 273 282 276 284 278 271 255
274 273 270 269 269 268 264 257 252 252 256 255 252 254 256 259 260 257 255 251 250 245 245 252 250 252 260 261 268 271 271 260 266 267 265 263 265 274 271 267 264 269 253
278 276 274 271 269 267 266 262 256 250 247 248 248 248 255 250 260 260 254 256 250 249 249 251 254 245 248 246 247 252 264 264 258 257 254 255 260 265 260 258 261 261 258
286 283 280 276 270 264 260 258 257 250 247 246 246 248 251 256 254 253 257 250 250 246 247 254 259 252 253 239 245 235 252 260 254 246 245 249 255 254 247 250 255 252 253
289 289 284 280 276 271 264 259 255 252 248 245 243 243 246 248 255 254 258 259 250 249 248 246 245 245 247 246 241 238 239 252 243 238 241 247 247 248 249 249 251 250 254
296 293 291 288 284 280 275 265 260 254 250 245 242 240 243 246 249 246 257 256 255 248 245 242 246 254 247 236 227 232 225 230 230 235 239 242 238 244 245 246 248 253 251
303 296 291 291 287 281 277 266 261 258 254 250 243 242 240 240 243 249 252 254 254 250 246 246 246 243 232 233 233 237 218 216 227 232 235 237 238 239 242 241 244 250 249
297 299 297 293 290 286 274 270 260 260 257 254 252 247 247 245 244 249 249 250 253 249 246 239 230 224 225 218 217 213 215 213 226 231 234 233 233 235 240 236 237 245 232
301 302 302 298 294 291 275 272 269 263 261 254 256 252 246 245 243 249 256 258 251 248 237 228 218 214 216 223 224 223 218 205 204 220 221 224 225 229 229 230 236 240 231
312 309 302 299 295 292 284 282 275 270 266 259 249 251 255 248 249 254 258 261 254 243 235 231 219 217 227 225 238 225 214 209 203 207 212 211 213 221 224 232 239 233 225
312 313 302 300 297 295 287 275 277 271 271 263 255 246 253 257 254 257 260 265 249 238 237 230 231 234 233 242 258 237 227 221 201 207 205 200 209 218 226 232 231 222 214
318 316 312 305 302 298 282 282 277 285 281 263 256 242 249 262 268 266 262 249 246 240 238 235 236 237 239 248 250 240 223 212 191 194 197 196 202 209 222 221 205 199 199
319 315 313 310 304 298 294 281 285 287 281 285 259 237 248 265 268 264 248 243 235 236 231 228 234 240 241 237 238 234 223 197 187 186 202 194 202 198 182 191 204 201 189
Wind_Speed_850mb
50 46 47 47 47 46 46 46 47 47 48 48 48 49 47 47 46 44 43 37 39 39 37 35 31 29 26 23 23 26 27 29 27 25 23 24 24 25 24 21 21 24 28
57 57 54 52 51 50 50 50 50 51 52 54 54 55 54 53 52 52 50 48 44 46 45 41 38 36 33 29 24 26 27 32 31 28 27 25 23 24 23 21 20 23 31
59 59 58 59 57 55 56 53 53 53 55 58 60 60 61 60 59 60 57 55 51 50 53 50 46 43 40 34 30 30 30 32 32 31 29 27 27 26 27 24 23 37 34
61 63 63 63 66 60 59 59 60 58 57 59 61 64 66 69 68 68 65 61 60 57 58 58 55 48 45 41 37 35 35 34 33 31 33 32 33 34 35 37 42 48 39
64 63 59 59 57 56 62 64 64 61 60 61 65 68 71 69 68 72 75 70 68 62 61 58 56 54 50 46 42 39 39 38 33 38 36 36 37 41 45 46 43 49 54
67 55 55 61 46 42 41 49 47 47 47 49 59 69 72 76 75 72 73 77 74 69 63 61 58 58 56 54 46 43 39 40 40 41 43 44 46 50 55 52 56 57 58
65 65 51 41 44 43 39 43 48 40 32 41 76 65 54 61 64 64 69 75 74 71 69 67 66 62 57 55 53 47 41 41 41 44 45 45 46 51 52 56 58 62 64
64 65 53 45 43 46 45 43 42 62 84 79 83 72 41 35 38 36 41 49 61 64 66 72 71 66 62 57 55 50 45 45 44 44 43 40 43 51 48 46 55 64 58
53 49 44 39 40 46 53 53 50 71 64 79 83 75 42 41 45 49 50 47 53 48 52 64 70 67 64 64 59 57 51 48 47 43 42 40 42 48 44 45 56 54 52
25 28 32 37 45 48 55 56 49 57 61 56 59 79 76 78 52 60 56 66 55 54 49 38 39 35 57 66 64 60 53 51 45 43 44 43 46 42 41 46 46 40 32
28 30 34 37 44 49 51 49 51 55 57 62 72 81 81 76 76 79 84 80 57 47 56 72 76 64 59 49 63 59 53 56 45 44 45 48 47 38 38 38 32 27 19
48 46 47 48 51 53 53 52 53 53 56 58 59 70 71 60 59 62 79 96 85 72 60 65 72 67 65 54 41 46 57 56 46 44 46 51 48 39 33 32 24 21 10
61 61 61 62 63 62 59 62 63 65 66 67 66 67 67 69 65 69 76 77 84 84 92 59 57 62 57 57 57 58 61 59 49 48 44 53 50 38 29 29 21 21 14
76 78 80 79 75 71 70 67 68 69 69 71 69 67 62 63 63 63 67 73 60 74 95 114 112 76 60 52 49 51 54 48 45 49 50 47 48 37 28 27 23 23 14
88 90 92 93 91 88 79 74 67 72 74 74 70 70 66 65 65 68 67 60 67 66 72 96 106 100 91 83 62 51 40 44 39 49 51 48 43 39 29 24 20 24 21
91 96 97 97 96 93 90 84 79 69 74 73 70 70 69 57 61 65 74 79 81 83 80 61 59 88 76 73 75 64 55 63 49 51 52 47 40 37 29 25 22 23 23
80 83 84 85 86 85 86 87 85 77 74 75 78 76 74 73 60 57 69 82 83 83 84 94 89 84 83 67 73 63 46 57 52 52 49 44 39 36 30 28 25 26 23
67 66 63 64 68 71 69 72 72 67 73 79 78 78 73 68 71 65 69 75 83 88 89 77 79 86 83 83 73 64 52 56 53 51 48 43 38 37 34 33 32 30 27
59 62 65 68 68 69 71 70 71 69 68 74 76 78 78 76 75 61 72 74 77 87 87 82 78 77 77 78 67 44 41 46 51 52 47 43 38 35 30 31 31 28 29
68 61 56 58 63 63 61 61 64 70 72 70 76 86 76 73 73 68 68 72 76 80 85 82 83 70 69 77 68 61 58 52 54 54 52 44 41 37 35 31 27 27 28
62 66 70 67 64 63 65 65 67 68 70 71 67 78 87 82 72 73 68 69 78 79 88 77 74 65 76 77 68 68 66 60 59 60 52 47 44 41 39 31 27 24 25
64 69 74 74 70 64 60 67 64 68 75 81 74 59 67 70 79 79 86 79 82 81 86 81 77 74 83 80 68 80 89 78 64 59 55 48 44 42 39 34 29 25 24
72 79 80 77 80 73 68 63 61 67 68 80 90 81 57 62 66 72 83 88 90 94 87 87 88 78 79 75 60 76 75 72 58 44 57 40 43 40 41 36 32 29 25
71 69 71 69 72 70 63 63 63 61 67 75 87 96 77 65 62 68 71 82 80 92 100 101 91 99 95 73 69 74 77 68 52 49 56 35 45 45 41 35 31 30 31
65 62 61 64 70 65 62 51 54 58 60 64 76 91 75 67 71 76 81 79 80 88 104 107 103 101 94 86 77 71 67 71 67 56 59 35 44 42 32 24 24 33 36
61 59 60 61 60 57 52 45 47 56 55 49 55 94 92 85 83 81 79 73 80 89 90 95 102 109 84 63 63 63 73 79 62 37 57 40 46 42 25 29 28 38 41
Wind_Direction_850mb
234 235 237 240 244 246 243 241 243 245 246 247 248 252 252 255 258 259 257 259 257 253 259 266 262 259 268 271 272 267 267 271 278 281 286 283 283 285 283 286 294 294 297
239 239 241 241 244 246 251 252 252 254 256 257 257 258 260 260 262 262 262 263 258 256 254 260 261 261 265 270 276 278 276 267 274 278 283 286 286 281 279 281 293 296 296
246 247 251 253 251 254 253 255 258 259 264 269 270 269 269 269 267 268 267 267 264 259 259 259 262 262 263 264 273 272 276 275 275 279 280 280 277 277 277 281 283 298 287
255 254 256 258 258 258 261 262 265 265 267 272 278 281 281 280 277 274 274 272 269 267 266 262 258 260 260 263 273 271 269 276 276 280 278 276 277 280 282 277 285 295 288
256 259 265 271 272 270 272 269 268 273 276 281 285 287 287 284 281 282 277 274 273 271 269 273 259 257 260 261 271 271 271 269 272 274 276 275 279 285 288 292 294 298 297
256 248 276 285 266 263 265 261 265 273 289 294 295 289 288 287 286 281 279 278 277 273 272 269 268 261 260 262 265 268 273 268 270 275 273 278 284 292 294 289 296 297 295
251 262 272 272 269 260 255 247 239 245 281 302 313 307 299 291 290 284 281 279 279 277 272 269 267 266 266 264 263 265 271 274 272 273 275 278 283 295 298 296 297 298 294
258 271 274 271 272 267 270 247 258 278 286 287 290 294 299 307 298 308 310 303 288 279 275 270 268 268 266 265 267 266 267 273 275 275 277 276 286 297 296 296 300 299 296
264 267 272 265 268 269 270 280 284 276 286 268 262 264 274 276 292 290 291 299 301 301 279 270 268 267 264 265 266 267 268 275 275 275 278 279 288 294 297 301 305 305 304
288 286 286 283 279 277 275 278 273 256 267 260 254 257 260 269 264 286 287 283 282 290 297 286 279 290 268 262 262 266 269 274 275 274 278 282 289 291 296 306 308 308 305
280 289 292 289 288 288 285 279 274 267 267 267 256 257 263 268 266 271 283 278 276 279 278 279 283 289 286 282 260 267 270 268 269 270 278 282 289 281 296 307 311 315 305
274 272 270 269 272 272 270 270 267 262 261 261 259 260 258 257 258 263 256 261 271 270 274 282 277 277 279 279 284 284 273 261 263 265 277 282 284 281 294 300 308 307 327
270 270 267 264 264 263 266 265 260 258 256 256 256 255 258 256 258 258 261 260 264 265 257 261 267 268 272 277 283 283 281 258 258 265 272 281 279 284 292 289 286 293 287
270 269 269 271 268 264 262 260 261 258 257 255 253 251 251 253 255 255 253 260 256 256 254 252 254 257 268 274 286 289 270 249 251 267 272 270 273 282 276 284 278 271 255
274 273 270 269 269 268 264 257 252 252 256 255 252 254 256 259 260 257 255 251 250 245 245 252 250 252 260 261 268 271 271 260 266 267 265 263 265 274 271 267 264 269 253
278 276 274 271 269 267 266 262 256 250 247 248 248 248 255 250 260 260 254 256 250 249 249 251 254 245 248 246 247 252 264 264 258 257 254 255 260 265 260 258 261 261 258
286 283 280 276 270 264 260 258 257 250 247 246 246 248 251 256 254 253 257 250 250 246 247 254 259 252 253 239 245 235 252 260 254 246 245 249 255 254 247 250 255 252 253
289 289 284 280 276 271 264 259 255 252 248 245 243 243 246 248 255 254 258 259 250 249 248 246 245 245 247 246 241 238 239 252 243 238 241 247 247 248 249 249 251 250 254
296 293 291 288 284 280 275 265 260 254 250 245 242 240 243 246 249 246 257 256 255 248 245 242 246 254 247 236 227 232 225 230 230 235 239 242 238 244 245 246 248 253 251
303 296 291 291 287 281 277 266 261 258 254 250 243 242 240 240 243 249 252 254 254 250 246 246 246 243 232 233 233 237 218 216 227 232 235 237 238 239 242 241 244 250 249
297 299 297 293 290 286 274 270 260 260 257 254 252 247 247 245 244 249 249 250 253 249 246 239 230 224 225 218 217 213 215 213 226 231 234 233 233 235 240 236 237 245 232
301 302 302 298 294 291 275 272 269 263 261 254 256 252 246 245 243 249 256 258 251 248 237 228 218 214 216 223 224 223 218 205 204 220 221 224 225 229 229 230 236 240 231
312 309 302 299 295 292 284 282 275 270 266 259 249 251 255 248 249 254 258 261 254 243 235 231 219 217 227 225 238 225 214 209 203 207 212 211 213 221 224 232 239 233 225
312 313 302 300 297 295 287 275 277 271 271 263 255 246 253 257 254 257 260 265 249 238 237 230 231 234 233 242 258 237 227 221 201 207 205 200 209 218 226 232 231 222 214
318 316 312 305 302 298 282 282 277 285 281 263 256 242 249 262 268 266 262 249 246 240 238 235 236 237 239 248 250 240 223 212 191 194 197 196 202 209 222 221 205 199 199
319 315 313 310 304 298 294 281 285 287 281 285 259 237 248 265 268 264 248 243 235 236 231 228 234 240 241 237 238 234 223 197 187 186 202 194 202 198 182 191 204 201 189